This demonstration page uses our WeatherBlox Daily Observations layout. Learn more.

Left ArrowRight Arrow

Hourly Observations for July 28, 2019

Temp ( °F °C ) Dew Point ( °F °C ) Humidity (%) Winds ( mph kmh ) Pressure ( in mb ) Visibility ( mi km ) Precip ( " mm )
12:56 am 00:56 Clear 77 25 60 15.6 56 56 S 13 20 29.93 1014 10 16 0.00 0.00
1:56 am 01:56 Mostly Clear 76 24.4 59 15 56 56 S 13 20 29.92 1013 10 16 0.00 0.00
2:56 am 02:56 Cloudy 75 23.9 60 15.6 60 60 SW 7 11 29.93 1014 10 16 0.00 0.00
3:56 am 03:56 Mostly Clear 71 21.7 61 16.1 71 71 SSE 9 15 29.91 1013 10 16 0.00 0.00
4:56 am 04:56 Mostly Clear 70 21.1 62 16.7 76 76 SE 10 17 29.88 1012 10 16 0.00 0.00
5:56 am 05:56 Partly Cloudy 68 20 63 17.2 84 84 S 6 9 29.88 1012 10 16 0.00 0.00
6:16 am 06:16 Mostly Clear with Nearby Thunderstorms 68 20 63 17 83 83 S 6 9 29.86 1011 10 16 0.00 0.00
6:31 am 06:31 Mostly Sunny 70 21 61 16 73 73 S 13 20 29.85 1011 10 16 0.00 0.00
6:56 am 06:56 Mostly Cloudy with Light Rain 69 20.6 62 16.7 78 78 S 10 17 29.88 1012 10 16 0.00 0.00
7:56 am 07:56 Mostly Sunny 70 21.1 62 16.7 76 76 S 12 19 29.88 1012 10 16 0.00 0.00
8:56 am 08:56 Sunny 72 22.2 62 16.7 71 71 SSE 15 24 29.88 1012 10 16 0.00 0.00
9:56 am 09:56 Cloudy 74 23.3 63 17.2 69 69 S 15 24 29.87 1012 10 16 0.00 0.00
10:56 am 10:56 Mostly Sunny 77 25 64 17.8 64 64 S 13 20 29.86 1011 10 16 0.00 0.00
11:56 am 11:56 Sunny 77 25 64 17.8 64 64 S 12 19 29.87 1011 10 16 0.00 0.00
12:56 pm 12:56 Partly Cloudy 80 26.7 65 18.3 60 60 SSW 14 22 29.86 1011 10 16 0.00 0.00
1:56 pm 13:56 Mostly Sunny 80 26.7 65 18.3 60 60 SW 9 15 29.86 1011 10 16 0.00 0.00
2:56 pm 14:56 Mostly Sunny 83 28.3 64 17.8 53 53 WSW 9 15 29.85 1011 10 16 0.00 0.00
3:56 pm 15:56 Sunny 85 29.4 66 18.9 53 53 VRB 7 11 29.86 1011 10 16 0.00 0.00
4:56 pm 16:56 Sunny 86 30 66 18.9 51 51 WNW 7 11 29.86 1011 10 16 0.00 0.00
5:56 pm 17:56 Sunny 85 29.4 67 19.4 55 55 NW 6 9 29.86 1011 10 16 0.00 0.00
6:56 pm 18:56 Sunny 85 29.4 68 20 57 57 NW 6 9 29.86 1011 10 16 0.00 0.00
7:56 pm 19:56 Sunny 84 28.9 69 20.6 61 61 N 3 6 29.87 1012 10 16 0.00 0.00
8:56 pm 20:56 Sunny 80 26.7 71 21.7 74 74 Calm 29.88 1012 10 16 0.00 0.00
9:56 pm 21:56 Clear 78 25.6 71 21.7 79 79 Calm 29.91 1013 10 16 0.00 0.00
10:56 pm 22:56 Clear 75 23.9 71 21.7 88 88 NNW 6 9 29.94 1014 10 16 0.00 0.00
11:56 pm 23:56 Clear 74 23.3 69 20.6 85 85 N 6 9 29.97 1015 10 16 0.00 0.00

Powered by AerisWeather